Location: Góry Miechowskie
(50.3599°N, 20.1803°E)
Time: 16:55:50
(UTC+00:00)

Cosmos 2228 - Pass Details

Date: 19 September 2024
Orbit: 574 x 600 km, 82.5° (Epoch: 12 October)

Event Time Altitude Azimuth Distance (km) Brightness Sun altitude
Exits shadow 23:59:53 14° 58° (ENE) 1,671 5.8 -35.4°
Drops below altitude 10° 00:01:03 10° 43° (NE) 1,942 6.3 -35.3°
Sets 00:03:53 0° 24° (NNE) 2,855 7.5 -35.1°
